Location: Camaret
(44.1640°N, 4.8742°E)
Time: 06:29:19
(UTC+00:00)

Daily predictions for brighter satellites

Satellite Brightness Start Highest point End
(mag) Time Altitude Azimuth Time Altitude Azimuth Time Altitude Azimuth
Cosmos 1634 Rocket 4.2 16:55:15 10° N 17:01:18 51° ENE 17:07:23 10° SSE
Okean-O 4.2 17:00:30 10° E 17:02:58 15° ENE 17:05:27 10° NNE
AQUARIUS 4.1 16:59:32 10° SSE 17:04:00 73° ENE 17:08:30 10° N
Cosmos 1536 Rocket 3.6 17:03:37 10° S 17:07:58 86° E 17:12:24 10° N
COSMO-SKYMED 1 3.5 17:04:53 10° NE 17:08:38 28° E 17:12:22 10° SSE
Cosmos 2227 Rocket 3.9 17:03:46 10° WSW 17:08:42 30° NW 17:13:40 10° N
Cosmos 1674 3.2 17:06:26 10° SSW 17:10:13 63° W 17:14:03 10° N
Landsat 5 3.7 17:06:51 10° N 17:10:49 66° WNW 17:14:38 10° SSW
RESURS DK-1 2.4 17:06:53 10° SSW 17:10:59 66° ESE 17:15:05 10° NNE
Okean O Rocket 1.6 17:06:36 10° SSE 17:11:02 74° ENE 17:15:28 10° N
ERS-2 3.6 17:12:38 10° NE 17:15:12 18° E 17:17:46 10° SE
CZ-4C R/B 3.9 17:13:58 10° N 17:16:59 43° WNW 17:19:58 10° SW
CZ-4B R/B 2.1 17:14:17 10° NNE 17:17:26 34° E 17:20:30 10° SSE
SL-24 R/B 4.2 17:15:16 10° SSE 17:19:33 83° WSW 17:24:03 10° NNW
CZ-4C R/B 2.8 17:16:34 10° WSW 17:21:25 52° NW 17:27:17 10° NNE
CZ-4B R/B 3.5 17:17:49 10° S 17:23:18 76° WSW 17:28:56 10° NNW
Cosmos 1844 Rocket 4.3 17:20:41 10° SE 17:23:35 14° E 17:25:29 12° ENE
Tsikada Rocket 4.3 17:17:40 10° SSW 17:24:00 75° W 17:30:19 10° N
USA 234 4.2 17:19:06 10° ENE 17:24:33 30° N 17:30:06 10° NW
FengYun 1-2 T 4.3 17:19:06 10° SSE 17:24:38 89° WSW 17:30:16 10° NNW
CZ-2D R/B 3.7 17:24:10 10° SE 17:27:46 38° ENE 17:31:22 10° N
Cosmos 1400 Rocket 3.9 17:23:53 10° NNW 17:27:52 50° W 17:31:48 10° S
Cosmos 1354 Rocket 4.0 17:23:51 10° SSW 17:29:08 75° ESE 17:34:29 10° NNE
Meteor 2-5 Rocket 3.7 17:23:43 10° S 17:29:16 71° E 17:34:48 10° NNE
SL-14 R/B 3.1 17:26:01 10° S 17:29:51 74° E 17:33:44 10° NNE
IRS-1C Rocket 4.4 17:27:25 10° SE 17:32:23 45° ENE 17:37:22 10° N
Cosmos 1603 3.7 17:27:18 10° NNW 17:33:01 74° ENE 17:38:45 10° SSE
Cosmos 2297 Rocket 4.5 17:30:18 10° W 17:34:01 18° NW 17:37:47 10° N
COSMOS 2455 3.6 17:31:04 10° S 17:36:17 32° ESE 17:40:26 15° NE
Cosmos 2142 Rocket 4.4 17:31:45 10° N 17:37:55 68° E 17:44:01 10° SSE
ATLAS 3B R/B 2.9 17:33:01 10° NW 17:40:01 82° SW 17:47:17 10° SSE
YAOGAN 1 3.2 17:39:29 10° SE 17:43:19 32° ENE 17:47:10 10° N
Cosmos 1892 Rocket 3.9 17:39:37 10° SSE 17:43:42 41° E 17:47:47 10° NNE
Cosmos 1606 Rocket 3.5 17:40:18 10° N 17:44:40 67° E 17:49:02 10° SSE
H-2A R/B 3.3 17:42:45 10° N 17:47:00 43° WNW 17:51:10 10° SW
Cosmos 1626 3.3 17:45:05 10° SSW 17:48:38 45° WNW 17:52:12 10° N
CZ-2C R/B 3.1 17:43:39 10° SSE 17:48:45 64° ENE 17:54:11 10° N
CSL-04 Rocket 4.5 17:44:32 10° ESE 17:49:04 28° ENE 17:53:39 10° N
Cosmos 1939 Rocket 3.1 17:45:15 10° S 17:49:22 77° WSW 17:53:30 10° NNW
Nadezhda 4 Rocket 4.5 17:44:37 10° SSE 17:50:16 37° E 17:55:54 10° NNE
CZ-4 R/B 4.4 17:46:48 10° SSE 17:50:53 64° ENE 17:54:59 10° N
CZ-4 R/B 1.6 17:51:28 10° SSE 17:55:28 48° ENE 17:59:25 10° N
SKYMED 2 3.5 17:52:27 10° NNE 17:56:50 90° SSE 18:01:10 10° SSW
ATLAS 5 CENTAUR R/B 1.7 17:53:50 10° SW 17:57:47 64° NW 18:01:05 17° NNE
MOS 1 Rocket 3.0 17:54:08 10° NNE 17:58:30 68° E 18:02:44 10° S
BREEZE-M DEB (TANK) 3.0 17:58:13 10° WNW 18:01:22 43° SW 18:02:38 21° SSE
Meteor 2-10 Rocket 3.6 17:59:45 10° N 18:05:17 59° ENE 18:10:33 10° SSE
Feng Yun 1-1 Rocket 4.4 18:00:39 10° S 18:06:01 72° WSW 18:11:32 10° NNW
Abrixas rocket 3.8 18:06:26 10° W 18:08:41 25° SW 18:10:07 16° SSE
Cosmos 2058 Rocket 3.1 18:04:52 10° N 18:09:19 60° ENE 18:13:46 10° SSE
SJ 16-02 2.4 18:05:44 10° SSE 18:08:45 26° ESE 18:08:45 26° ESE
Cosmos 2228 3.6 18:05:22 10° NNW 18:09:33 58° W 18:13:44 10° S
H-2A R/B 1.9 18:05:10 10° SSE 18:10:00 57° ENE 18:14:57 10° N
Cosmos 2263 Rocket 2.9 18:05:30 10° SW 18:11:03 53° WNW 18:16:37 10° NNE
Cosmos 1315 Rocket 3.8 18:07:21 10° NNW 18:11:10 48° W 18:15:01 10° S
Okean 1-7 Rocket 3.6 18:08:40 10° S 18:13:05 56° E 18:16:13 19° NNE
SAR-Lupe-4 3.4 18:12:54 32° NNE 18:14:26 73° ESE 18:18:00 10° S
EXPRESS MD2 4.0 18:07:20 10° WNW 18:15:14 67° NNE 18:16:50 39° E
Meteor 1-24 Rocket 4.1 18:10:25 10° SSW 18:15:44 59° WNW 18:21:00 10° N
Cosmos 1300 4.4 18:15:57 10° NNW 18:19:27 35° W 18:22:56 10° SSW
Cosmos 1689 Rocket 2.4 18:22:29 54° SSW 18:22:29 54° SSW 18:24:46 10° SSW
Cosmos 1818 4.0 18:19:44 10° S 18:24:45 40° ESE 18:25:18 39° E
SAR-Lupe-1 4.0 18:24:36 37° N 18:25:53 82° WNW 18:29:27 10° SSW
Cosmos 1943 4.3 18:23:32 10° NW 18:28:55 45° WSW 18:34:14 10° S
Helios 1A Rocket 2.8 18:25:34 10° SSE 18:29:41 81° ENE 18:33:51 10° NNW
ISS -1.6 18:27:04 10° SSW 18:28:24 18° S 18:28:24 18° S
Meteor 2-13 Rocket 4.3 18:23:50 10° S 18:29:52 71° E 18:35:59 10° NNE
SJ-11-01 4.1 18:27:23 10° SSE 18:32:06 85° ENE 18:36:49 10° NNW
USA 267 3.4 18:29:51 36° ENE 18:32:23 56° SE 18:38:46 10° SSW
ARGOS 3.0 18:27:22 10° SSE 18:32:40 66° ENE 18:38:00 10° N
CSL-04 Debris 4.0 18:28:38 10° SSE 18:34:00 70° ENE 18:39:22 10° N
Cosmos 1844 3.9 18:29:44 10° S 18:35:02 45° ESE 18:35:08 45° ESE
Meteor 1-21 Rocket 4.1 18:30:46 10° S 18:36:10 60° E 18:38:13 37° NE
Lacrosse 5 2.4 18:33:03 10° NW 18:37:41 40° NNE 18:37:41 40° NNE
Okean-O 3.0 18:34:33 10° S 18:38:56 63° WSW 18:43:21 10° NNW
ATLAS 2AS CENTAUR R/B 4.4 18:35:31 10° W 18:42:21 31° NNW 18:48:02 14° NNE
CZ-2C R/B 2.8 18:43:09 53° E 18:43:09 53° E 18:48:35 10° S
COSMO-SKYMED 1 4.5 18:41:00 10° N 18:44:45 29° WNW 18:48:29 10° SW
ERS-2 3.9 18:46:37 17° NNW 18:48:48 31° WNW 18:52:01 10° SW
CZ-4B R/B 4.4 18:47:20 10° NNW 18:49:20 15° WNW 18:51:18 10° W
X-37B 3.4 18:47:21 10° SSW 18:47:55 13° SSW 18:47:55 13° SSW
Cosmos 158 Rocket 4.3 18:47:04 10° NNW 18:51:25 53° NNE 18:51:25 53° NNE
Cosmos 2195 Rocket 4.4 18:46:37 10° S 18:52:49 63° E 18:54:34 46° NE
Cosmos 1844 Rocket 2.6 19:01:00 10° SSW 19:06:41 84° WNW 19:07:13 73° N
USA 234 3.4 19:06:27 53° NE 19:06:44 53° NNE 19:13:04 10° NW
CZ-4C R/B 4.4 19:07:51 10° WNW 19:11:33 17° NNW 19:13:43 15° N
Cosmos 1092 Rocket 3.9 19:08:24 10° S 19:14:38 83° W 19:17:18 37° N
Iridium 4 Rocket 4.2 19:11:24 10° N 19:23:28 - S 19:15:35 49° N
COSMOS 2455 3.6 19:16:11 10° SW 19:22:00 48° NW 19:23:37 39° N
Cosmos 2344 4.3 19:16:07 10° NW 19:25:12 58° NE 19:26:41 55° ENE
CZ-4 R/B 4.4 19:28:19 10° SW 19:30:44 15° W 19:33:07 10° NW
ATLAS 5 CENTAUR R/B 4.3 19:41:10 10° WNW 19:42:38 13° NW 19:42:38 13° NW
SJ 16-02 3.8 19:44:06 10° WSW 19:45:49 20° WSW 19:45:49 20° WSW
NOSS 3-1 (C) 4.4 19:51:08 10° NW 19:56:35 53° NNW 19:56:35 53° NNW
USA 267 4.2 20:17:13 42° WNW 20:17:13 42° WNW 20:21:41 10° WSW
